This is the latest recevied weather packets stored in our database for station/object N2UFM. If no packets are shown the sender has not sent any weather packets the latest 10 day(s).
| Time | Temp. | Humidity | Pressure | Rain* | Wind** | Luminosity | Snow |
|---|---|---|---|---|---|---|---|
| 1778166654 | 16.11° C | 45% | 1012.4 hPa | 0 mm | - | - | - |
| 1778166354 | 15.56° C | 46% | 1012.4 hPa | 0 mm | - | - | - |
| 1778166054 | 15.56° C | 48% | 1012.5 hPa | 0 mm | - | - | - |
| 1778165754 | 15.56° C | 47% | 1012.5 hPa | 0 mm | - | - | - |
| 1778165454 | 15.56° C | 49% | 1012.4 hPa | 0 mm | - | - | - |
| 1778165154 | 15.56° C | 51% | 1012.5 hPa | 0 mm | - | - | - |
| 1778164853 | 15.56° C | 48% | 1012.5 hPa | 0 mm | - | - | - |
| 1778164553 | 15.56° C | 51% | 1012.6 hPa | 0 mm | - | - | - |
| 1778164253 | 15° C | 52% | 1012.6 hPa | 0 mm | - | - | - |
| 1778163953 | 14.44° C | 54% | 1012.6 hPa | 0 mm | - | - | - |
| 1778163653 | 14.44° C | 57% | 1012.6 hPa | 0 mm | - | - | - |
| 1778163353 | 13.89° C | 63% | 1012.6 hPa | 0 mm | - | - | - |
| 1778163052 | 14.44° C | 64% | 1012.6 hPa | 0 mm | - | - | - |
| 1778162752 | 13.89° C | 66% | 1012.6 hPa | 0 mm | - | - | - |
| 1778162452 | 13.89° C | 68% | 1012.6 hPa | 0 mm | - | - | - |
| 1778162152 | 13.89° C | 69% | 1012.7 hPa | 0 mm | - | - | - |
| 1778161852 | 13.33° C | 70% | 1012.4 hPa | 0 mm | - | - | - |
| 1778161552 | 13.33° C | 71% | 1012.6 hPa | 0 mm | - | - | - |
| 1778161251 | 13.33° C | 74% | 1012.6 hPa | 0 mm | - | - | - |
| 1778160951 | 12.78° C | 76% | 1012.6 hPa | 0 mm | - | - | - |
| 1778160651 | 12.22° C | 78% | 1012.6 hPa | 0 mm | - | - | - |
| 1778160351 | 12.22° C | 78% | 1012.6 hPa | 0 mm | - | - | - |
| 1778160051 | 12.22° C | 81% | 1012.6 hPa | 0 mm | - | - | - |
| 1778159751 | 12.22° C | 81% | 1012.5 hPa | 0 mm | - | - | - |
| 1778159451 | 11.67° C | 83% | 1012.6 hPa | 0 mm | - | - | - |
* Rain latest hour (hover to see other rain measurements)
** Current wind speed in m/s (hover to see current wind gust speed)